GW1348 Weather Reports


Display with metric or nautical units.
time (UTC)temp
F
wind
direction
speed
MPH
gust
MPH
rain 1hr
in
rain 24hr
in
rain mn
in
humidity
%
barometer
mb
20260831032532 52 32 1.0 3.0 0.04 0.16 0.07 96 1004.2
20260831032028 52 0 0.0 4.0 0.05 0.16 0.07 96 1004.1
20260831031559 52 27 0.0 4.0 0.05 0.16 0.07 96 1004.2
20260831031030 52 0 0.0 0.0 0.04 0.15 0.06 96 1004.0
20260831030530 52 0 0.0 0.0 0.04 0.15 0.06 96 1004.1
20260831030054 52 0 0.0 0.0 0.03 0.14 0.05 96 1004.1
20260831025531 52 0 0.0 0.0 0.03 0.14 0.04 96 1004.0
20260831025031 52 0 0.0 0.0 0.03 0.14 0.04 96 1004.0
20260831024618 52 0 0.0 0.0 0.02 0.13 0.03 96 1003.9
20260831024033 52 0 0.0 0.0 0.03 0.13 0.03 96 1003.9
20260831023531 52 0 0.0 0.0 0.03 0.13 0.03 96 1003.9
20260831023054 52 0 0.0 0.0 0.03 0.13 0.03 96 1003.9
20260831022531 52 0 0.0 0.0 0.03 0.13 0.03 96 1003.9
20260831022031 52 0 0.0 0.0 0.02 0.12 0.02 96 1003.9
20260831021601 52 0 0.0 0.0 0.02 0.12 0.02 96 1004.0
20260831021031 52 0 0.0 0.0 0.02 0.12 0.02 95 1003.9
20260831020530 52 0 0.0 0.0 0.02 0.12 0.02 95 1003.9
20260831020054 52 0 0.0 0.0 0.02 0.12 0.02 95 1004.0
20260831015531 52 0 0.0 0.0 0.01 0.12 0.01 95 1004.0
20260831015030 52 0 0.0 0.0 0.01 0.12 0.01 95 1004.0
20260831014550 52 0 0.0 0.0 0.01 0.12 0.01 95 1003.9
20260831014031 52 0 0.0 0.0 0.00 0.11 0.00 95 1003.9
20260831013528 52 0 0.0 0.0 0.00 0.11 0.00 95 1003.9
20260831013102 52 0 0.0 0.0 0.00 0.11 0.00 95 1003.9
20260831012530 52 0 0.0 0.0 0.00 0.11 0.00 95 1003.9
20260831012031 52 0 0.0 0.0 0.00 0.11 0.00 95 1003.8
20260831011556 52 0 0.0 0.0 0.00 0.11 0.00 95 1003.8
20260831011029 52 0 0.0 0.0 0.00 0.11 0.00 95 1003.8
20260831010530 52 0 0.0 0.0 0.00 0.11 0.00 95 1003.7
20260831010127 52 0 0.0 0.0 0.00 0.11 0.00 95 1003.7
20260831005531 52 0 0.0 0.0 0.00 0.12 0.00 95 1003.7
20260831005030 52 0 0.0 0.0 0.00 0.12 0.00 95 1003.8
20260831004551 52 0 0.0 0.0 0.00 0.12 0.00 95 1003.8
20260831004031 52 0 0.0 0.0 0.00 0.12 0.00 95 1003.8
20260831003530 52 0 0.0 0.0 0.00 0.12 0.00 95 1003.8
20260831003047 52 0 0.0 0.0 0.00 0.12 0.00 95 1003.8
20260831002530 52 0 0.0 0.0 0.00 0.12 0.00 95 1003.7
20260831002028 52 0 0.0 0.0 0.00 0.12 0.00 94 1003.7
20260831001609 52 0 0.0 0.0 0.00 0.12 0.00 94 1003.7
20260831001030 52 0 0.0 0.0 0.00 0.12 0.00 94 1003.7
20260831000531 52 0 0.0 0.0 0.00 0.12 0.00 94 1003.8
20260831000057 52 0 0.0 0.0 0.00 0.12 0.00 94 1003.9
20260830235530 52 0 0.0 0.0 0.00 0.12 0.00 94 1003.8
20260830235033 52 0 0.0 0.0 0.00 0.12 0.00 94 1003.7
20260830234552 52 0 0.0 0.0 0.00 0.12 0.00 94 1003.7
20260830234031 52 0 0.0 0.0 0.00 0.12 0.00 94 1003.7
20260830233531 52 0 0.0 0.0 0.00 0.12 0.00 94 1003.7
20260830233049 52 0 0.0 0.0 0.00 0.12 0.00 94 1003.7
20260830232531 52 0 0.0 0.0 0.00 0.12 0.00 94 1003.7
20260830232030 52 0 0.0 0.0 0.00 0.12 0.00 94 1003.7
20260830231553 52 0 0.0 0.0 0.00 0.12 0.00 94 1003.6
20260830231031 53 0 0.0 0.0 0.00 0.12 0.00 94 1003.6
20260830230530 52 0 0.0 0.0 0.00 0.12 0.00 94 1003.7
20260830230056 53 0 0.0 0.0 0.00 0.12 0.00 94 1003.6
20260830225531 53 0 0.0 0.0 0.00 0.12 0.00 94 1003.6
20260830225031 52 0 0.0 0.0 0.00 0.12 0.00 94 1003.6
20260830224601 52 0 0.0 0.0 0.00 0.12 0.00 94 1003.6
20260830224031 52 0 0.0 0.0 0.00 0.12 0.00 94 1003.7
20260830223531 52 0 0.0 0.0 0.00 0.12 0.00 94 1003.7
20260830223048 52 0 0.0 0.0 0.00 0.12 0.00 94 1003.6
20260830222531 52 0 0.0 0.0 0.00 0.12 0.00 94 1003.6
20260830222035 52 0 0.0 0.0 0.00 0.12 0.00 94 1003.6
20260830221559 52 0 0.0 0.0 0.00 0.12 0.00 94 1003.7
20260830221030 52 0 0.0 0.0 0.00 0.12 0.00 94 1003.8
20260830220530 52 0 0.0 0.0 0.00 0.12 0.00 94 1003.8
20260830220115 52 0 0.0 0.0 0.00 0.12 0.00 94 1003.7
20260830215535 53 0 0.0 0.0 0.00 0.12 0.12 94 1003.7
20260830215028 53 0 0.0 0.0 0.00 0.12 0.12 94 1003.8
20260830214557 53 0 0.0 0.0 0.00 0.12 0.12 94 1003.8
20260830214031 53 0 0.0 0.0 0.00 0.12 0.12 94 1003.7
20260830213530 52 0 0.0 0.0 0.00 0.12 0.12 94 1003.7
20260830213053 53 0 0.0 0.0 0.00 0.12 0.12 94 1003.6
20260830212530 53 0 0.0 0.0 0.00 0.12 0.12 94 1003.6
20260830212030 53 0 0.0 0.0 0.00 0.12 0.12 94 1003.5
20260830211552 53 0 0.0 0.0 0.00 0.12 0.12 94 1003.4
20260830211031 53 0 0.0 0.0 0.00 0.12 0.12 94 1003.5
20260830210531 53 0 0.0 0.0 0.00 0.12 0.12 93 1003.6
20260830210051 53 0 0.0 0.0 0.00 0.12 0.12 93 1003.6
20260830205530 53 0 0.0 0.0 0.00 0.12 0.12 93 1003.6
20260830205030 53 0 0.0 0.0 0.00 0.12 0.12 94 1003.6
20260830204548 53 0 0.0 0.0 0.00 0.12 0.12 94 1003.5
20260830204030 53 0 0.0 0.0 0.00 0.12 0.12 94 1003.6
20260830203530 53 0 0.0 0.0 0.00 0.12 0.12 94 1003.6
20260830203110 53 0 0.0 0.0 0.00 0.12 0.12 94 1003.6
20260830202528 53 0 0.0 0.0 0.00 0.12 0.12 94 1003.6
20260830202030 53 0 0.0 0.0 0.00 0.12 0.12 94 1003.6
20260830201554 53 0 0.0 0.0 0.00 0.12 0.12 94 1003.6
20260830201030 53 0 0.0 0.0 0.00 0.12 0.12 94 1003.5
20260830200530 53 0 0.0 0.0 0.00 0.12 0.12 94 1003.5
20260830200058 53 0 0.0 0.0 0.00 0.12 0.12 94 1003.6
20260830195530 53 0 0.0 0.0 0.00 0.12 0.12 94 1003.6
20260830195027 53 0 0.0 0.0 0.00 0.12 0.12 94 1003.6
20260830194548 53 0 0.0 0.0 0.00 0.12 0.12 94 1003.5
20260830194031 53 0 0.0 0.0 0.00 0.12 0.12 94 1003.5
20260830193531 53 0 0.0 0.0 0.00 0.12 0.12 93 1003.4
20260830193052 53 0 0.0 0.0 0.00 0.12 0.12 93 1003.4
20260830192531 53 0 0.0 0.0 0.00 0.12 0.12 93 1003.4
20260830192030 53 0 0.0 0.0 0.00 0.12 0.12 93 1003.4
20260830191549 53 0 0.0 0.0 0.00 0.12 0.12 94 1003.5
20260830191028 53 0 0.0 0.0 0.00 0.12 0.12 93 1003.5
20260830190531 53 0 0.0 0.0 0.00 0.12 0.12 94 1003.5
20260830190049 53 0 0.0 0.0 0.00 0.12 0.12 94 1003.4
20260830185530 53 0 0.0 0.0 0.00 0.12 0.12 94 1003.4
20260830185031 53 0 0.0 0.0 0.00 0.12 0.12 94 1003.4
20260830184557 53 0 0.0 0.0 0.00 0.12 0.12 93 1003.4
20260830184036 53 0 0.0 0.0 0.00 0.12 0.12 93 1003.3
20260830183534 53 0 0.0 0.0 0.00 0.12 0.12 93 1003.3
20260830183111 53 0 0.0 0.0 0.00 0.12 0.12 93 1003.3
20260830182530 53 0 0.0 0.0 0.00 0.12 0.12 93 1003.2
20260830182031 54 0 0.0 0.0 0.00 0.12 0.12 93 1003.2
20260830181555 54 0 0.0 0.0 0.00 0.12 0.12 92 1003.3
20260830181031 54 0 0.0 0.0 0.00 0.12 0.12 92 1003.2
20260830180527 54 0 0.0 0.0 0.00 0.12 0.12 92 1003.2
20260830180105 54 0 0.0 0.0 0.00 0.12 0.12 91 1003.2
20260830175530 54 0 0.0 0.0 0.00 0.12 0.12 91 1003.2
20260830175031 54 0 0.0 0.0 0.00 0.12 0.12 91 1003.2
20260830174555 54 0 0.0 0.0 0.00 0.12 0.12 90 1003.1
20260830174030 54 0 0.0 0.0 0.00 0.12 0.12 90 1003.1
20260830173533 54 0 0.0 0.0 0.00 0.12 0.12 90 1003.1
20260830173114 54 0 0.0 0.0 0.00 0.12 0.12 90 1002.9
20260830172533 55 0 0.0 0.0 0.00 0.12 0.12 90 1002.9
20260830172033 55 0 0.0 0.0 0.00 0.12 0.12 89 1002.9
20260830171600 55 0 0.0 0.0 0.00 0.12 0.12 88 1002.9
20260830171032 55 0 0.0 0.0 0.00 0.12 0.12 89 1002.9
20260830170530 55 0 0.0 0.0 0.00 0.12 0.12 89 1002.9
20260830170055 55 0 0.0 0.0 0.00 0.12 0.12 89 1002.8
20260830165533 55 0 0.0 0.0 0.00 0.12 0.12 89 1002.8
20260830165030 55 0 0.0 0.0 0.00 0.12 0.12 89 1002.8
20260830164551 55 0 0.0 0.0 0.00 0.12 0.12 89 1002.8
20260830164030 55 0 0.0 0.0 0.00 0.12 0.12 89 1002.7
20260830163530 55 0 0.0 0.0 0.00 0.12 0.12 89 1002.8
20260830163103 56 0 0.0 0.0 0.00 0.12 0.12 89 1002.7
20260830162534 56 0 0.0 0.0 0.00 0.12 0.12 89 1002.8
20260830162030 56 0 0.0 0.0 0.00 0.12 0.12 88 1002.7
20260830161614 56 0 0.0 0.0 0.00 0.12 0.12 89 1002.7
20260830161032 56 0 0.0 0.0 0.00 0.12 0.12 89 1002.8
20260830160532 56 0 0.0 0.0 0.00 0.12 0.12 88 1002.7
20260830160052 56 0 0.0 0.0 0.00 0.12 0.12 88 1002.7
20260830155531 56 0 0.0 0.0 0.00 0.12 0.12 88 1002.7
20260830155031 56 0 0.0 0.0 0.00 0.12 0.12 88 1002.7
20260830154549 56 0 0.0 0.0 0.00 0.12 0.12 88 1002.8
20260830154031 56 0 0.0 0.0 0.00 0.12 0.12 88 1002.8
20260830153532 56 0 0.0 1.0 0.00 0.12 0.12 88 1002.7
20260830153059 56 0 0.0 1.0 0.00 0.12 0.12 88 1002.7
20260830152530 56 0 0.0 0.0 0.00 0.12 0.12 89 1002.7
20260830152031 56 0 0.0 1.0 0.00 0.12 0.12 90 1002.6
20260830151553 56 0 0.0 1.0 0.00 0.12 0.12 89 1002.5
20260830151031 56 0 0.0 1.0 0.00 0.12 0.12 89 1002.6
20260830150531 56 0 0.0 0.0 0.00 0.12 0.12 88 1002.6
20260830150053 56 0 0.0 0.0 0.00 0.12 0.12 88 1002.6
20260830145534 57 0 0.0 0.0 0.00 0.12 0.12 89 1002.6
20260830145032 56 0 0.0 0.0 0.00 0.12 0.12 88 1002.6
20260830144548 57 0 0.0 1.0 0.00 0.12 0.12 88 1002.6
20260830144030 57 0 0.0 1.0 0.00 0.12 0.12 88 1002.5
20260830143531 57 0 0.0 1.0 0.00 0.12 0.12 87 1002.5
20260830143100 57 0 0.0 1.0 0.00 0.12 0.12 88 1002.6
20260830142531 57 0 0.0 2.0 0.00 0.12 0.12 88 1002.6
20260830142031 57 0 0.0 2.0 0.00 0.12 0.12 89 1002.5
20260830141553 56 0 0.0 2.0 0.00 0.12 0.12 88 1002.5
20260830141033 56 0 0.0 1.0 0.00 0.12 0.12 90 1002.5
20260830140534 56 0 0.0 1.0 0.00 0.12 0.12 90 1002.4
20260830140101 56 316 0.0 1.0 0.00 0.12 0.12 90 1002.4
20260830135530 56 0 0.0 1.0 0.00 0.12 0.12 90 1002.4
20260830135032 56 0 0.0 3.0 0.00 0.12 0.12 90 1002.5
20260830134552 56 94 0.0 3.0 0.00 0.12 0.12 91 1002.5
20260830134031 56 0 0.0 1.0 0.00 0.12 0.12 92 1002.5
20260830133529 55 0 0.0 1.0 0.00 0.12 0.12 92 1002.4
20260830133054 55 92 0.0 1.0 0.00 0.12 0.12 92 1002.5
20260830132530 55 0 0.0 1.0 0.00 0.12 0.12 93 1002.5
20260830132032 55 0 0.0 2.0 0.00 0.12 0.12 93 1002.5
20260830131611 54 0 0.0 3.0 0.00 0.12 0.12 93 1002.4
20260830131032 54 129 0.0 3.0 0.00 0.12 0.12 93 1002.5
20260830130533 54 229 0.0 3.0 0.00 0.12 0.12 93 1002.4
20260830130100 54 0 1.0 4.0 0.00 0.12 0.12 93 1002.4
20260830125530 54 143 1.0 4.0 0.00 0.12 0.12 92 1002.3
20260830125032 55 108 0.0 4.0 0.00 0.12 0.12 93 1002.3
20260830124547 55 0 0.0 1.0 0.00 0.12 0.12 93 1002.2
20260830124031 54 0 0.0 1.0 0.00 0.12 0.12 93 1002.2
20260830123531 54 51 0.0 1.0 0.00 0.12 0.12 93 1002.2
20260830123055 54 0 0.0 4.0 0.00 0.12 0.12 92 1002.2
20260830122531 54 0 0.0 4.0 0.00 0.12 0.12 92 1002.3
20260830122031 55 92 0.0 3.0 0.00 0.12 0.12 92 1002.2
20260830121550 55 0 1.0 3.0 0.00 0.12 0.12 92 1002.3
20260830121030 55 0 0.0 3.0 0.01 0.12 0.12 92 1002.3
20260830120532 55 120 0.0 3.0 0.01 0.12 0.12 92 1002.1
20260830120051 56 0 0.0 0.0 0.02 0.12 0.12 92 1002.3
20260830115530 56 0 0.0 0.0 0.03 0.12 0.12 93 1002.3
20260830115034 56 0 0.0 1.0 0.04 0.12 0.12 93 1002.3
20260830114557 56 0 0.0 2.0 0.04 0.12 0.12 93 1002.2
20260830114030 56 99 0.0 2.0 0.04 0.12 0.12 94 1002.2
20260830113534 55 0 0.0 2.0 0.04 0.12 0.12 93 1002.1
20260830113053 55 0 0.0 3.0 0.04 0.12 0.12 94 1002.2
20260830112530 55 0 0.0 3.0 0.05 0.12 0.12 93 1002.2
20260830112035 55 0 0.0 3.0 0.05 0.12 0.12 93 1002.1
20260830111551 55 0 1.0 3.0 0.05 0.12 0.12 93 1002.1
20260830111031 55 11 0.0 1.0 0.04 0.11 0.11 93 1002.1
20260830110530 55 0 0.0 0.0 0.05 0.11 0.11 93 1002.0
20260830110110 55 0 0.0 0.0 0.04 0.10 0.10 93 1002.0
20260830105531 55 0 0.0 0.0 0.03 0.09 0.09 93 1002.1
20260830105030 55 0 0.0 0.0 0.02 0.08 0.08 93 1002.1
20260830104554 55 0 0.0 1.0 0.02 0.08 0.08 94 1002.1
20260830104031 54 0 0.0 1.0 0.02 0.08 0.08 94 1002.1
20260830103531 54 152 0.0 1.0 0.02 0.08 0.08 93 1002.1
20260830103052 54 0 0.0 1.0 0.01 0.07 0.07 93 1001.9
20260830102531 54 0 0.0 1.0 0.01 0.07 0.07 94 1002.0
20260830102030 54 0 0.0 1.0 0.01 0.07 0.07 94 1002.0
20260830101549 53 0 0.0 3.0 0.01 0.07 0.07 93 1001.9
20260830101031 53 135 0.0 3.0 0.01 0.07 0.07 93 1002.0
20260830100531 53 148 0.0 2.0 0.00 0.06 0.06 93 1001.9
20260830100059 53 0 0.0 0.0 0.00 0.06 0.06 93 1001.9
20260830095531 53 0 0.0 1.0 0.00 0.06 0.06 93 1001.9
20260830095031 53 226 0.0 1.0 0.00 0.06 0.06 93 1001.9
20260830094555 53 0 0.0 1.0 0.00 0.06 0.06 93 1001.9
20260830094034 54 0 0.0 1.0 0.00 0.06 0.06 93 1001.8
20260830093530 54 0 0.0 1.0 0.00 0.06 0.06 93 1001.7
20260830093114 54 0 0.0 1.0 0.00 0.06 0.06 93 1001.8
20260830092530 54 0 0.0 2.0 0.00 0.06 0.06 93 1001.8
20260830092029 54 0 0.0 3.0 0.00 0.06 0.06 93 1001.7
20260830091550 54 0 1.0 3.0 0.00 0.06 0.06 92 1001.7
20260830091032 54 0 0.0 1.0 0.00 0.06 0.06 92 1001.7
20260830090531 54 0 0.0 2.0 0.00 0.06 0.06 92 1001.6
20260830085530 54 111 0.0 2.0 0.00 0.07 0.06 92 1001.5
20260830085037 54 150 0.0 3.0 0.00 0.07 0.06 92 1001.4
20260830084552 54 0 0.0 3.0 0.00 0.07 0.06 92 1001.3
20260830084032 54 0 0.0 2.0 0.00 0.07 0.06 92 1001.3
20260830083532 54 0 0.0 1.0 0.00 0.07 0.06 93 1001.4
20260830083100 54 0 0.0 3.0 0.00 0.07 0.06 92 1001.3
20260830082531 53 179 0.0 3.0 0.00 0.07 0.06 93 1001.4
20260830082033 53 141 0.0 3.0 0.00 0.07 0.06 92 1001.3
20260830081552 53 85 0.0 4.0 0.00 0.07 0.06 93 1001.2
20260830081031 53 0 0.0 4.0 0.01 0.07 0.06 93 1001.2
20260830080531 53 0 0.0 4.0 0.01 0.07 0.06 93 1001.2
20260830080054 53 0 0.0 4.0 0.01 0.07 0.06 93 1001.1
20260830075531 53 326 0.0 2.0 0.01 0.07 0.06 93 1001.1
20260830075030 53 194 0.0 2.0 0.01 0.07 0.06 94 1001.1
20260830074632 53 0 0.0 2.0 0.01 0.07 0.06 94 1001.1
20260830074031 53 0 0.0 2.0 0.01 0.07 0.06 94 1001.1
20260830073531 53 148 1.0 2.0 0.01 0.07 0.06 94 1001.1
20260830073111 53 79 0.0 4.0 0.01 0.07 0.06 94 1001.0
20260830072531 53 0 1.0 4.0 0.01 0.07 0.06 94 1001.1
20260830072035 53 13 0.0 3.0 0.02 0.07 0.06 94 1001.0
20260830071619 53 0 0.0 3.0 0.02 0.07 0.06 94 1000.9
20260830071033 53 148 0.0 3.0 0.01 0.06 0.05 94 1001.0
20260830070532 53 0 0.0 3.0 0.01 0.06 0.05 94 1000.9
20260830070101 53 0 0.0 3.0 0.01 0.06 0.05 94 1000.8
20260830065531 53 0 0.0 0.0 0.02 0.06 0.05 95 1000.9
20260830065031 53 0 0.0 1.0 0.02 0.06 0.05 95 1000.8
20260830064553 53 0 0.0 3.0 0.02 0.06 0.05 95 1000.9
20260830064031 53 0 0.0 3.0 0.02 0.06 0.05 95 1000.7
20260830063531 52 0 0.0 0.0 0.02 0.06 0.05 95 1000.7
20260830063050 52 0 0.0 0.0 0.02 0.06 0.05 95 1000.7
20260830062530 53 0 0.0 0.0 0.02 0.06 0.05 95 1000.7
20260830062031 52 0 0.0 0.0 0.01 0.05 0.04 95 1000.6
20260830061549 52 0 0.0 0.0 0.01 0.05 0.04 95 1000.5
20260830061031 52 0 0.0 0.0 0.01 0.05 0.04 95 1000.7
20260830060534 52 0 0.0 1.0 0.01 0.05 0.04 95 1000.5
20260830060100 53 0 0.0 2.0 0.01 0.05 0.04 95 1000.6
20260830055530 53 0 0.0 2.0 0.00 0.04 0.03 95 1000.6
20260830055031 53 0 0.0 0.0 0.00 0.04 0.03 95 1000.6
20260830054553 53 0 0.0 2.0 0.00 0.04 0.03 95 1000.5
20260830054035 53 0 0.0 2.0 0.00 0.04 0.03 95 1000.6
20260830053530 53 0 0.0 1.0 0.00 0.04 0.03 95 1000.4
20260830053056 53 253 0.0 2.0 0.00 0.04 0.03 95 1000.5
20260830052533 52 0 0.0 2.0 0.00 0.04 0.03 95 1000.5
20260830052030 52 0 0.0 2.0 0.00 0.04 0.03 95 1000.5
20260830051551 52 0 0.0 0.0 0.00 0.04 0.03 95 1000.4
20260830051033 52 0 0.0 1.0 0.00 0.04 0.03 95 1000.4
20260830050531 52 0 0.0 1.0 0.00 0.04 0.03 95 1000.4
20260830050106 52 0 0.0 1.0 0.00 0.04 0.03 95 1000.5
20260830045531 52 0 0.0 2.0 0.00 0.04 0.03 95 1000.3
20260830045030 52 0 0.0 2.0 0.00 0.04 0.03 95 1000.5
20260830044552 52 0 0.0 1.0 0.00 0.04 0.03 95 1000.5
20260830044035 53 148 0.0 1.0 0.00 0.04 0.03 95 1000.5
20260830043531 53 0 0.0 0.0 0.00 0.04 0.03 96 1000.4
20260830043052 53 0 0.0 0.0 0.00 0.04 0.03 96 1000.5
20260830042531 53 0 0.0 0.0 0.00 0.04 0.03 96 1000.5
20260830042031 53 0 0.0 0.0 0.00 0.04 0.03 96 1000.3
20260830041627 52 0 0.0 0.0 0.00 0.04 0.03 96 1000.3
20260830041033 52 0 0.0 0.0 0.00 0.04 0.03 96 1000.4
20260830040530 52 0 0.0 0.0 0.00 0.04 0.03 95 1000.4
20260830040056 52 0 0.0 1.0 0.00 0.04 0.03 95 1000.3
20260830035530 52 0 0.0 1.0 0.00 0.04 0.03 95 1000.3
20260830035030 53 0 0.0 2.0 0.01 0.04 0.03 95 1000.2
20260830034552 53 132 0.0 2.0 0.01 0.04 0.03 95 1000.3
20260830034030 53 0 0.0 2.0 0.01 0.04 0.03 95 1000.5
20260830033533 53 0 0.0 2.0 0.01 0.04 0.03 95 1000.3
20260830033052 53 0 0.0 1.0 0.01 0.04 0.03 95 1000.3